Location: Gorrie
(43.8742°N, 81.1087°W)
Time: 14:17:43
(UTC+00:00)

USA 234 - Pass Details

Date: 09 December 2025
Orbit: 1102 x 1106 km, 123.0° (Epoch: 4 January)

Event Time Altitude Azimuth Distance (km) Brightness Sun altitude
Rises 09:28:02 0° 56° (NE) 3,930 6.9 -35.0°
Reaches altitude 10° 09:30:47 10° 46° (NE) 2,971 6.0 -34.5°
Enters shadow 09:35:13 30° 7° (N) 1,886 4.4 -33.7°
